Weather History for KSMQ - December, 2012

Change the Weather History Date:

Tuesday, December 18, 2012

  Actual Average Record
Temperature  
Mean Temperature 48 °F -  
Max Temperature 55 °F 40 °F 60 °F (1937)
Min Temperature 42 °F 23 °F -2 °F (1960)
Degree Days  
Heating Degree Days 16    
Moisture  
Dew Point 43 °F    
Average Humidity 90    
Maximum Humidity 100    
Minimum Humidity 66    
Precipitation  
Precipitation 0.26 in - - ()
Sea Level Pressure  
Sea Level Pressure 29.53 in    
Wind  
Wind Speed 3 mph (NW)    
Max Wind Speed 15 mph    
Max Gust Speed 30 mph    
Visibility 5 miles    
Events Fog , Rain    
Averages and records for this station are not official NWS values.
T = Trace of Precipitation, MM = Missing Value Source: NWS Daily Summary

Daily Weather History Graph

Daily Weather History Graph

Search for Another Location

Airport or City:

Trip Planner

Search our weather history database for the weather conditions in past years. The results will help you decide how hot, cold, wet, or windy it might be!

Date:

Astronomy

Dec. 18, 2012 Rise Set
Actual Time 7:17 AM EST 4:33 PM EST
Civil Twilight 6:46 AM EST 5:04 PM EST
Nautical Twilight 6:12 AM EST 5:38 PM EST
Astronomical Twilight 5:38 AM EST 6:12 PM EST
Moon 10:54 AM EST (12/18) 10:58 PM EST (12/18)
Length of Visible Light 10h 17m
Length of Day
9h 16m
Waxing Crescent, 34% of the Moon is Illuminated
Dec 18
Waxing Crescent
Dec 20
First Quarter
Dec 28
Full
Jan 4
Last Quarter
Jan 11
New

Hourly Weather History & Observations

Time (EST) Temp. Windchill Dew Point Humidity Pressure Visibility Wind Dir Wind Speed Gust Speed Precip Events Conditions
12:26 AM 44.6 °F - 42.8 °F 93% 29.58 in 3.0 mi Calm Calm - 0.02 in Rain Light Rain
12:50 AM 44.6 °F 41.4 °F 42.8 °F 93% 29.56 in 2.5 mi NE 5.8 mph - 0.04 in Rain Light Rain
12:53 AM 44.1 °F 40.8 °F 43.0 °F 96% 29.56 in 3.0 mi NE 5.8 mph - 0.05 in Rain Light Rain
1:27 AM 44.6 °F 41.4 °F 42.8 °F 93% 29.54 in 2.5 mi North 5.8 mph - 0.05 in Rain Rain
1:36 AM 44.6 °F 40.2 °F 42.8 °F 93% 29.56 in 3.0 mi NNW 8.1 mph - 0.10 in Rain Rain
1:39 AM 44.6 °F 40.7 °F 42.8 °F 93% 29.55 in 1.8 mi North 6.9 mph - 0.14 in Rain Heavy Rain
1:48 AM 44.6 °F 41.4 °F 42.8 °F 93% 29.53 in 4.0 mi ENE 5.8 mph - 0.16 in Rain Light Rain
1:53 AM 44.1 °F 40.1 °F 43.0 °F 96% 29.54 in 7.0 mi ENE 6.9 mph - 0.16 in Rain Light Rain
2:53 AM 45.0 °F - 44.1 °F 97% 29.52 in 10.0 mi Calm Calm - 0.01 in   Overcast
3:41 AM 44.6 °F 42.2 °F 44.6 °F 100% 29.50 in 4.0 mi NW 4.6 mph - 0.00 in Rain Light Rain
3:53 AM 45.0 °F 43.5 °F 44.1 °F 97% 29.50 in 2.5 mi North 3.5 mph - 0.01 in Rain Light Rain
4:14 AM 44.6 °F 43.1 °F 44.6 °F 100% 29.49 in 4.0 mi NNW 3.5 mph - 0.01 in   Overcast
4:41 AM 44.6 °F - 44.6 °F 100% 29.49 in 4.0 mi Calm Calm - 0.01 in   Overcast
4:53 AM 45.0 °F - 44.1 °F 97% 29.50 in 3.0 mi Calm Calm - 0.01 in   Overcast
5:13 AM 44.6 °F - 44.6 °F 100% 29.49 in 2.5 mi Calm Calm - N/A   Overcast
5:23 AM 44.6 °F - 44.6 °F 100% 29.50 in 3.0 mi Calm Calm - N/A   Overcast
5:39 AM 44.6 °F - 44.6 °F 100% 29.50 in 2.5 mi Calm Calm - N/A   Overcast
5:46 AM 44.6 °F - 44.6 °F 100% 29.50 in 3.0 mi Calm Calm - N/A   Overcast
5:53 AM 45.0 °F - 45.0 °F 100% 29.51 in 3.0 mi Calm Calm - N/A   Overcast
6:49 AM 44.6 °F - 44.6 °F 100% 29.51 in 2.5 mi Calm Calm - 0.01 in   Overcast
6:53 AM 45.0 °F - 45.0 °F 100% 29.52 in 2.5 mi Calm Calm - 0.01 in   Overcast
7:15 AM 44.6 °F - 44.6 °F 100% 29.51 in 2.0 mi Calm Calm - N/A   Overcast
7:28 AM 44.6 °F - 44.6 °F 100% 29.51 in 1.2 mi Calm Calm - N/A   Overcast
7:39 AM 44.6 °F - 44.6 °F 100% 29.51 in 0.5 mi Calm Calm - N/A Fog Fog
7:53 AM 45.0 °F - 45.0 °F 100% 29.52 in 0.8 mi Calm Calm - N/A   Overcast
8:10 AM 44.6 °F - 44.6 °F 100% 29.51 in 0.8 mi Calm Calm - N/A   Overcast
8:37 AM 44.6 °F 43.1 °F 44.6 °F 100% 29.52 in 1.2 mi South 3.5 mph - N/A   Overcast
8:41 AM 46.4 °F - 44.6 °F 93% 29.52 in 2.0 mi Calm Calm - N/A   Overcast
8:50 AM 46.4 °F - 46.4 °F 100% 29.52 in 4.0 mi Calm Calm - N/A   Overcast
8:53 AM 46.0 °F - 46.0 °F 100% 29.53 in 4.0 mi Calm Calm - N/A   Overcast
9:06 AM 46.4 °F - 46.4 °F 100% 29.52 in 6.0 mi Calm Calm - N/A   Overcast
9:53 AM 48.0 °F - 46.9 °F 96% 29.53 in 10.0 mi Variable 3.5 mph - N/A   Overcast
10:53 AM 50.0 °F - 45.0 °F 83% 29.51 in 10.0 mi Variable 4.6 mph - N/A   Scattered Clouds
11:53 AM 52.0 °F - 46.0 °F 80% 29.49 in 10.0 mi Variable 5.8 mph - N/A   Partly Cloudy
12:53 PM 55.0 °F - 46.9 °F 74% 29.47 in 10.0 mi Calm Calm - N/A   Scattered Clouds
1:53 PM 55.0 °F - 45.0 °F 69% 29.46 in 10.0 mi Variable 3.5 mph - N/A   Scattered Clouds
2:53 PM 52.0 °F - 44.1 °F 74% 29.47 in 10.0 mi Variable 6.9 mph - 0.01 in   Overcast
3:53 PM 52.0 °F - 43.0 °F 71% 29.48 in 10.0 mi WSW 8.1 mph - 0.00 in   Mostly Cloudy
4:53 PM 48.9 °F - 37.9 °F 66% 29.50 in 10.0 mi West 15.0 mph 29.9 mph N/A   Overcast
5:53 PM 46.9 °F - 37.9 °F 71% 29.54 in 10.0 mi West 10.4 mph 20.7 mph N/A   Overcast
6:53 PM 46.0 °F 41.9 °F 37.0 °F 71% 29.56 in 10.0 mi WNW 8.1 mph 19.6 mph N/A   Overcast
7:53 PM 44.1 °F 39.5 °F 36.0 °F 73% 29.60 in 10.0 mi WNW 8.1 mph - N/A   Partly Cloudy
8:53 PM 43.0 °F 38.8 °F 35.1 °F 74% 29.62 in 10.0 mi WNW 6.9 mph - N/A   Clear
9:53 PM 43.0 °F 37.7 °F 35.1 °F 74% 29.64 in 10.0 mi West 9.2 mph 16.1 mph N/A   Scattered Clouds
10:53 PM 42.1 °F 37.1 °F 34.0 °F 73% 29.64 in 10.0 mi WNW 8.1 mph - N/A   Clear
11:53 PM 42.1 °F 37.1 °F 32.0 °F 67% 29.65 in 10.0 mi WNW 8.1 mph - N/A   Clear